Regional Weather Roundup
Issued by NWS Bismarck, ND

Home | Current Version | Previous Version | Text Only | Print | Product List | Glossary On
Versions: 1 2 3 4 5 6 7 8 9 10 11 12 13 14 15 16 17 18 19 20 21 22 23 24 25 26 27 28 29 30 31 32 33 34 35 36 37 38 39 40 41 42 43 44 45 46 47 48 49 50
000
ASUS43 KBIS 261720
RWRBIS

NWR BROADCAST TEXT
NATIONAL WEATHER SERVICE BISMARCK ND
1200 PM CDT SAT JUL 26 2014

NOTE: "FAIR" INDICATES FEW OR NO CLOUDS BELOW 12,000 FEET WITH NO
SIGNIFICANT WEATHER AND/OR OBSTRUCTIONS TO VISIBILITY.


CITY           SKY/WX    TMP DP  RH WIND       PRES   REMARKS
WILLISTON      CLOUDY    68  50  52 W29G38    29.92R
MINOT          CLOUDY    66  52  60 SW23G32   29.81S
MINOT AFB      PTSUNNY   65  56  72 W24G31    29.79S
BISMARCK       SUNNY     74  49  41 NW20G26   29.90S
DICKINSON      MOSUNNY   70  50  49 W24G36    29.96R
GARRISON         N/A     68  54  60 W23G32    29.87R
HETTINGER ARPT SUNNY     74  46  36 W26G35    30.01S
JAMESTOWN      SUNNY     74  52  46 W17       29.83S
CARRINGTON     FAIR      72  55  56 W22G30    29.83S
CROSBY           N/A     61  59  94 W22G32    29.86R
HARVEY         FAIR      68  55  64 W23G32    29.82S
HAZEN          FAIR      72  52  49 W21G30    29.90S
LINTON         FAIR      75  54  46 NW23G29   29.91S
MANDAN         FAIR      72  54  53 W20G29    29.91F
RUGBY          PTSUNNY   64  55  72 W17G28    29.77F
STANLEY        CLOUDY    63  55  77 W24G38    29.86R
TIOGA          CLOUDY    63  57  82 W26G39    29.91R
WATFORD CITY   PTSUNNY   66  50  55 W18G32    29.93R
$$

CITY           SKY/WX    TMP DP  RH WIND       PRES   REMARKS
GRAND FORKS    MOSUNNY   74  57  55 W13       29.75S
GRAND FORKS AF SUNNY     74  57  54 W12       29.76S
DEVILS LAKE    MOSUNNY   70  52  52 W22G33    29.76R
FARGO          SUNNY     80  63  55 W14       29.78R
CANDO          CLOUDY    64  54  68 W21G29    29.77R
CAVALIER       FAIR      72  54  53 W18G30    29.71F
GRAFTON        FAIR      72  55  56 W20G25    29.73F
GWINNER        SUNNY     79  59  50 W7G16     29.86R
LANGDON        CLOUDY    66  54  63 W17G26    29.74R
ROLLA          PTSUNNY   63  55  77 W21       29.75S
WALHALLA         N/A     70  55  60 W16G24      N/A
$$

CITY           SKY/WX    TMP DP  RH WIND       PRES   REMARKS
ABERDEEN       SUNNY     82  54  37 NW14      29.88R
MOBRIDGE       SUNNY     78  52  40 NW14G22   29.91S
BUFFALO          N/A     73  45  36 W23G32    30.01R
RAPID CITY     SUNNY     76  46  34 N18G29    30.07S
GLASGOW        CLOUDY    66  50  56 NW23      30.04R
SIDNEY         CLOUDY    70  48  46 W20G26    29.99R
WOLF POINT     CLOUDY    70  48  45 NW24G31   30.00R
GLENDIVE       SUNNY     72  48  43 W24G33    30.03S
MILES CITY     SUNNY     76  42  29 NW22G31   30.07S
BAKER          SUNNY     73  43  33 NW26G40   30.05S
$$

CITY           SKY/WX    TMP DP  RH WIND       PRES   REMARKS
BILLINGS       MOSUNNY   73  39  29 SW8       30.15S
GREAT FALLS    SUNNY     69  39  33 CALM      30.18S
REGINA         CLOUDY    61  57  88 NW23G32   29.86R
ESTEVAN        LGT RAIN  64  55  72 NW21G31   29.81R
$$



USA.gov is the U.S. government's official web portal to all federal, state and local government web resources and services.